Weather reports worldwide

Advertisment
Walney Island, United Kingdom (3214): temperature & dewpoint: 18.11.2020 02:00:00 - 24.11.2020 02:00:00 (GMT)Walney Island, United Kingdom (3214): temperature -20cm & temperature -100cm: 18.11.2020 02:00:00 - 24.11.2020 02:00:00 (GMT)Walney Island, United Kingdom (3214): wind speed & gusts: 18.11.2020 02:00:00 - 24.11.2020 02:00:00 (GMT)Walney Island, United Kingdom (3214): wind direction: 18.11.2020 02:00:00 - 24.11.2020 02:00:00 (GMT)Walney Island, United Kingdom (3214): reduced air pressure: 18.11.2020 02:00:00 - 24.11.2020 02:00:00 (GMT)Walney Island, United Kingdom (3214): visibility: 18.11.2020 02:00:00 - 24.11.2020 02:00:00 (GMT)Walney Island, United Kingdom (3214): precipitation: 18.11.2020 02:00:00 - 24.11.2020 02:00:00 (GMT)
Date & Time tt [°C] td [°C] tt -20cm [°C] tt -100cm [°C] ff [km/h] ff [kn] fx [km/h] fx [kn] dd ppp [hPa] vv [km] rr [mm]
24.11.2020 02:00:00 11,2 10,3 - - 41 22 61 33 SSW 1013,2 9 0,0
24.11.2020 01:00:00 11,3 10,3 - - 41 22 63 34 SSW 1013,9 16 0,2
24.11.2020 00:00:00 11,2 10,3 - - 35 19 57 31 SSW 1014,4 6 0,2
23.11.2020 23:00:00 11,4 10,1 - - 39 21 61 33 SSW 1015,0 15 0,0
23.11.2020 22:00:00 11,3 10,0 - - 39 21 65 35 SSW 1015,2 14 0,0
23.11.2020 21:00:00 11,4 9,8 - - 37 20 61 33 SSW 1015,5 16 0,0
23.11.2020 20:00:00 11,3 10,0 - - 37 20 55 30 SSW 1015,9 14 0,0
23.11.2020 19:00:00 11,3 9,9 - - 31 17 57 31 SSW 1016,2 12 0,0
23.11.2020 18:00:00 11,2 9,8 - - 35 19 52 28 SSW 1016,7 13 0,0
23.11.2020 17:00:00 11,1 9,7 - - 31 17 52 28 SSW 1017,4 13 0,0
23.11.2020 16:00:00 10,8 9,3 - - 35 19 54 29 SSW 1017,0 15 0,0
23.11.2020 15:00:00 10,5 9,4 - - 29 16 48 26 SSW 1018,0 14 0,0
23.11.2020 14:00:00 9,1 7,7 - - 22 12 - - S 1019,0 17 0,0
23.11.2020 13:00:00 8,0 6,9 - - 28 15 - - S 1020,0 6 0,4
23.11.2020 12:00:00 7,8 5,7 - - 26 14 - - SSE 1021,1 21 0,0
23.11.2020 11:00:00 7,5 5,3 - - 26 14 - - SSE 1022,3 30 0,0
23.11.2020 10:00:00 8,9 5,0 - - 21 11 - - S 1022,7 40 0,0
23.11.2020 09:00:00 8,4 4,7 9,2 11,0 21 11 - - SSW 1023,0 40 0,0
23.11.2020 08:00:00 8,3 4,3 - - 18 10 - - S 1022,8 40 0,0
23.11.2020 07:00:00 8,7 5,0 - - 16 9 - - SW 1023,6 45 0,0
23.11.2020 06:00:00 8,0 4,3 - - 16 9 - - SW 1023,8 40 0,0
23.11.2020 05:00:00 7,6 3,8 - - 15 8 - - WSW 1024,1 25 0,0
23.11.2020 04:00:00 7,9 4,0 - - 16 9 - - WSW 1024,5 40 0,0
23.11.2020 03:00:00 7,8 4,1 - - 16 9 - - WSW 1024,4 30 0,0
23.11.2020 02:00:00 8,4 4,9 - - 15 8 - - WSW 1024,7 35 0,0
23.11.2020 01:00:00 7,5 3,9 - - 13 7 - - WSW 1025,0 35 0,0
23.11.2020 00:00:00 7,8 4,0 - - 16 9 57 31 W 1025,1 45 0,0
22.11.2020 23:00:00 7,9 4,0 - - 16 9 - - W 1024,8 45 0,0
22.11.2020 22:00:00 8,0 3,8 - - 18 10 - - W 1024,6 45 0,0
22.11.2020 21:00:00 8,4 3,7 - - 21 11 - - W 1024,7 35 0,0
22.11.2020 20:00:00 8,6 4,1 - - 24 13 - - W 1024,5 40 0,0
22.11.2020 19:00:00 8,3 3,7 - - 22 12 - - W 1024,3 30 0,0
22.11.2020 18:00:00 8,3 3,8 - - 24 13 - - W 1024,0 35 0,0
22.11.2020 17:00:00 8,5 3,9 - - 26 14 - - W 1023,7 29 0,0
22.11.2020 16:00:00 8,5 3,3 - - 26 14 - - W 1023,8 35 0,0
22.11.2020 15:00:00 8,9 3,5 - - 29 16 - - W 1023,8 26 0,0
22.11.2020 14:00:00 9,2 3,9 - - 28 15 - - W 1024,0 30 0,0
22.11.2020 13:00:00 9,3 4,4 - - 26 14 - - W 1024,2 22 0,0
22.11.2020 12:00:00 9,3 3,9 - - 22 12 - - W 1024,4 40 0,0
22.11.2020 11:00:00 9,2 4,4 - - 21 11 - - W 1024,6 26 0,0
22.11.2020 10:00:00 8,8 4,2 - - 24 13 - - W 1024,4 30 0,0
22.11.2020 09:00:00 8,3 3,9 10,0 11,0 22 12 - - W 1023,9 27 0,0
22.11.2020 08:00:00 8,2 3,6 - - 24 13 - - W 1023,3 24 0,0
22.11.2020 07:00:00 8,4 3,7 - - 29 16 46 25 W 1022,5 29 0,0
22.11.2020 06:00:00 8,3 3,2 - - 29 16 46 25 W 1022,2 23 0,0
22.11.2020 05:00:00 8,5 4,0 - - 29 16 46 25 W 1022,3 21 0,0
22.11.2020 04:00:00 8,5 3,4 - - 29 16 - - W 1022,2 18 0,0
22.11.2020 03:00:00 8,8 3,1 - - 34 18 46 25 W 1022,2 19 0,0
22.11.2020 02:00:00 8,9 3,8 - - 29 16 - - W 1021,8 27 0,0
22.11.2020 01:00:00 9,0 3,4 - - 29 16 - - W 1021,7 26 0,0
22.11.2020 00:00:00 9,2 4,3 - - 28 15 - - W 1021,5 28 0,0
21.11.2020 23:00:00 9,2 4,6 - - 26 14 - - W 1021,0 30 0,0
21.11.2020 22:00:00 10,0 5,8 - - 24 13 - - W 1020,8 28 0,0
21.11.2020 21:00:00 10,0 6,2 - - 22 12 - - W 1020,5 25 0,0
21.11.2020 20:00:00 10,3 5,7 - - 29 16 48 26 W 1020,4 28 0,0
21.11.2020 19:00:00 10,1 6,7 - - 22 12 46 25 WSW 1020,3 18 0,2
21.11.2020 18:00:00 10,1 7,4 - - 18 10 - - WSW 1020,3 24 0,0
21.11.2020 17:00:00 10,1 7,3 - - 22 12 - - W 1020,0 18 0,0
21.11.2020 16:00:00 10,2 7,6 - - 28 15 - - W 1019,6 24 0,0
21.11.2020 15:00:00 10,6 7,8 - - 18 10 - - W 1019,7 17 0,0
21.11.2020 14:00:00 11,1 8,3 - - 21 11 - - W 1019,3 14 0,0
21.11.2020 13:00:00 10,9 8,8 - - 21 11 - - W 1019,3 12 0,0
21.11.2020 12:00:00 10,3 9,6 - - 18 10 - - W 1019,2 13 0,4
21.11.2020 11:00:00 11,2 10,7 - - 37 20 55 30 WSW 1019,0 6 0,0
21.11.2020 10:00:00 10,8 10,1 - - 35 19 59 32 SW 1018,8 4,2 0,0
21.11.2020 09:00:00 11,5 9,1 10,0 11,2 37 20 57 31 SW 1018,3 11 0,0
21.11.2020 08:00:00 11,3 9,1 - - 39 21 61 33 SW 1018,3 8 0,0
21.11.2020 07:00:00 11,3 9,2 - - 29 16 54 29 SW 1018,5 12 0,0
21.11.2020 06:00:00 11,4 8,9 - - 35 19 54 29 SW 1018,4 13 0,0
21.11.2020 05:00:00 11,3 9,3 - - 35 19 57 31 SW 1018,6 14 0,0
21.11.2020 04:00:00 11,4 9,7 - - 37 20 61 33 SW 1018,7 10 0,0
21.11.2020 03:00:00 11,5 9,9 - - 34 18 54 29 SW 1019,1 11 0,0
21.11.2020 02:00:00 11,4 10,1 - - 37 20 55 30 SW 1019,9 9 0,0
21.11.2020 01:00:00 11,4 10,1 - - 28 15 52 28 SW 1020,1 11 0,0
21.11.2020 00:00:00 11,4 10,2 - - 37 20 54 29 SW 1020,4 10 0,0
20.11.2020 23:00:00 11,3 10,5 - - 26 14 - - SW 1021,0 9 0,0
20.11.2020 22:00:00 11,2 10,6 - - 24 13 - - SW 1021,5 9 0,0
20.11.2020 21:00:00 11,1 10,5 - - 26 14 - - SW 1021,7 9 0,0
20.11.2020 20:00:00 11,2 10,6 - - 28 15 - - SW 1022,2 10 0,0
20.11.2020 19:00:00 11,4 11,0 - - 22 12 - - SSW 1022,9 9 0,8
20.11.2020 18:00:00 11,6 11,0 - - 28 15 - - SW 1023,5 8 0,2
20.11.2020 17:00:00 11,8 10,9 - - 24 13 - - SW 1023,1 6 0,0
20.11.2020 16:00:00 11,6 11,0 - - 24 13 - - SW 1022,9 10 0,0
20.11.2020 15:00:00 11,5 11,3 - - 26 14 - - SW 1023,2 12 0,0
20.11.2020 14:00:00 11,2 11,2 - - 18 10 - - SSW 1023,3 2,4 1,0
20.11.2020 13:00:00 9,9 9,9 - - 21 11 - - S 1024,4 2,7 2,8
20.11.2020 12:00:00 9,3 9,2 - - 22 12 - - SSE 1025,4 3,1 1,8
20.11.2020 11:00:00 9,3 9,1 - - 22 12 - - S 1026,1 8 2,0
20.11.2020 10:00:00 8,7 8,6 - - 24 13 - - SSE 1026,4 5 2,0
20.11.2020 09:00:00 7,7 7,6 9,7 11,2 26 14 - - SSE 1026,8 4,3 1,0
20.11.2020 08:00:00 7,2 7,1 - - 24 13 - - SSE 1027,3 3,7 2,2
20.11.2020 07:00:00 7,1 6,9 - - 24 13 - - SSE 1027,8 4,2 2,4
20.11.2020 06:00:00 7,6 7,3 - - 22 12 - - SSE 1028,2 4,7 1,0
20.11.2020 05:00:00 7,9 7,1 - - 21 11 - - S 1028,9 3,6 0,4
20.11.2020 04:00:00 9,1 5,5 - - 16 9 - - SSW 1029,9 28 0,0
20.11.2020 03:00:00 8,7 4,8 - - 18 10 - - SSW 1030,2 30 0,0
20.11.2020 02:00:00 8,2 3,8 - - 13 7 - - SW 1031,0 50 0,0
20.11.2020 01:00:00 6,6 2,9 - - 9 5 - - SW 1031,7 40 0,0
20.11.2020 00:00:00 6,6 1,9 - - 8 4 54 29 W 1032,2 40 0,0
19.11.2020 23:00:00 7,5 1,9 - - 15 8 - - W 1032,9 50 0,0
19.11.2020 22:00:00 7,4 2,7 - - 15 8 - - W 1032,8 50 0,0
19.11.2020 21:00:00 5,7 3,6 - - 5 3 - - NNE 1032,8 50 0,0
19.11.2020 20:00:00 7,5 2,5 - - 22 12 - - WNW 1032,6 50 0,0
19.11.2020 19:00:00 7,2 3,1 - - 18 10 - - W 1032,1 40 0,0
19.11.2020 18:00:00 6,5 2,4 - - 21 11 - - NNW 1031,7 35 0,0
19.11.2020 17:00:00 6,6 0,7 - - 9 5 - - NW 1031,4 50 0,0
19.11.2020 16:00:00 7,2 0,0 - - 22 12 - - WNW 1031,8 50 0,0
19.11.2020 15:00:00 7,4 -0,5 - - 16 9 - - WNW 1031,2 30 0,0
19.11.2020 14:00:00 7,1 -0,6 - - 8 4 - - NNW 1029,7 45 0,0
19.11.2020 13:00:00 7,7 -0,3 - - 15 8 - - NNW 1029,3 30 0,0
19.11.2020 12:00:00 7,8 0,4 - - 18 10 - - NW 1029,8 45 0,0
19.11.2020 11:00:00 6,8 1,2 - - 18 10 - - NNW 1027,9 40 0,0
19.11.2020 10:00:00 6,3 1,6 - - 8 4 - - NW 1026,0 30 0,0
19.11.2020 09:00:00 5,1 1,0 10,7 11,2 15 8 - - NW 1024,6 50 0,0
19.11.2020 08:00:00 6,1 2,9 - - 16 9 - - NNW 1023,1 50 0,0
19.11.2020 07:00:00 6,8 4,0 - - 13 7 - - NW 1020,7 50 0,0
19.11.2020 06:00:00 7,6 5,6 - - 13 7 - - N 1018,1 50 0,0
19.11.2020 05:00:00 8,7 5,4 - - 29 16 46 25 NNW 1014,7 30 0,0
19.11.2020 04:00:00 9,6 7,6 - - 24 13 - - WNW 1013,1 12 0,0
19.11.2020 03:00:00 9,0 7,0 - - 29 16 54 29 WNW 1011,6 15 1,6
19.11.2020 02:00:00 9,0 7,4 - - 29 16 50 27 W 1009,7 8 3,4
19.11.2020 01:00:00 10,1 6,8 - - 37 20 55 30 W 1008,2 14 0,0
19.11.2020 00:00:00 10,0 7,3 - - 35 19 65 35 W 1006,8 11 0,0
18.11.2020 23:00:00 9,8 8,2 - - 48 26 68 37 W 1005,9 11 1,4
18.11.2020 22:00:00 8,6 7,4 - - 42 23 67 36 SW 1005,8 2,6 0,8
18.11.2020 21:00:00 10,0 6,0 - - 39 21 72 39 SW 1006,1 13 0,0
18.11.2020 20:00:00 9,8 5,6 - - 50 27 67 36 WSW 1006,4 21 0,0
18.11.2020 19:00:00 9,7 5,4 - - 41 22 74 40 WSW 1006,5 15 0,0
18.11.2020 18:00:00 9,9 5,8 - - 48 26 76 41 WSW 1006,1 16 0,0
18.11.2020 17:00:00 10,1 5,1 - - 42 23 68 37 SW 1006,0 14 0,0
18.11.2020 16:00:00 9,7 4,3 - - 44 24 65 35 WSW 1006,1 17 0,0
18.11.2020 15:00:00 10,1 6,0 - - 39 21 68 37 WSW 1005,6 16 0,0
18.11.2020 14:00:00 10,1 8,0 - - 37 20 59 32 WSW 1005,0 14 0,2
18.11.2020 13:00:00 10,3 9,4 - - 34 18 48 26 W 1004,5 9 0,4
18.11.2020 12:00:00 10,5 10,2 - - 28 15 50 27 WSW 1004,0 3,4 2,0
18.11.2020 11:00:00 11,8 11,5 - - 34 18 52 28 SSE 1004,0 4,1 3,0
18.11.2020 10:00:00 12,0 11,1 - - 34 18 50 27 SSE 1004,5 6 0,4
18.11.2020 09:00:00 11,9 10,7 11,0 11,2 28 15 - - SSE 1005,7 13 0,2
18.11.2020 08:00:00 12,7 10,4 - - 29 16 - - SSE 1006,7 30 0,0
18.11.2020 07:00:00 12,6 10,3 - - 29 16 - - SSE 1007,3 35 0,0
18.11.2020 06:00:00 12,2 10,1 - - 26 14 - - SSE 1008,5 21 0,0
18.11.2020 05:00:00 12,1 10,1 - - 21 11 - - SSE 1009,4 19 0,0
18.11.2020 04:00:00 12,0 10,1 - - 26 14 - - S 1010,4 21 0,0
18.11.2020 03:00:00 12,0 10,1 - - 21 11 - - SSE 1010,9 16 0,0
18.11.2020 02:00:00 11,8 10,1 - - 16 9 - - S 1012,0 16 0,0

tt = temperature
td = dewpoint
tt -20cm = temperature -20cm
tt -100cm = temperature -100cm
ff = wind speed
fx = gusts
dd = wind direction
ppp = reduced air pressure
vv = visibility
rr = precipitation

Next stations